Regional Weather Roundup
Issued by NWS

Home | Current Version | Previous Version | Text Only | Print | Product List | Glossary Off
Versions: 1 2 3 4 5 6 7 8 9 10 11 12 13 14 15 16 17 18 19 20 21 22 23 24 25 26 27 28 29 30 31 32 33 34 35 36 37 38 39 40 41 42 43 44 45 46 47 48 49 50

127
ASUS43 KLSX 271957
RWRMO

WEATHER SUMMARY FOR MISSOURI
NATIONAL WEATHER SERVICE SPRINGFIELD MO
200 PM CST MON FEB 27 2017

NOTE: "FAIR" INDICATES FEW OR NO CLOUDS BELOW 12,000 FEET WITH NO
       SIGNIFICANT WEATHER AND/OR OBSTRUCTIONS TO VISIBILITY.
       CURRENT SKY AND/OR WEATHER CONDITIONS ARE NOT AVAILABLE FOR
       CHILLICOTHE AND FARMINGTON.

MOZ001>031-035>038-043-044-053-054-272100-
...NORTHERN AND WESTERN MISSOURI...

CITY           SKY/WX    TMP DP  RH WIND       PRES   REMARKS
KANSAS CTY INT PTSUNNY   60  34  37 S14       29.91F
LEE`S SUMMIT   SUNNY     61  33  35 SE15      29.91F
ST JOSEPH      CLOUDY    58  32  37 S18G24    29.90F
CHILLICOTHE      N/A     59  28  30 SE9G21    29.95F

$$
MOZ066>068-077>081-088>096-101>105-272100-
...SOUTHWEST MISSOURI...

CITY           SKY/WX    TMP DP  RH WIND       PRES   REMARKS
SPRINGFIELD    PTSUNNY   62  39  42 S22       29.94F
JOPLIN         CLOUDY    64  47  53 S16G23    29.91F
BRANSON        PTSUNNY   63  45  51 SE10      29.99F

$$
MOZ032>034-039>042-045>050-055>058-069>072-272100-
...CENTRAL MISSOURI...

CITY           SKY/WX    TMP DP  RH WIND       PRES   REMARKS
COLUMBIA       NOT AVBL
JEFFERSON CITY SUNNY     61  35  37 SE8       29.99F
ROLLA          SUNNY     63  37  38 S13G20    29.99F
SEDALIA        SUNNY     63  32  31 S16G25    29.96F
WARRENSBURG    SUNNY     61  32  33 SE14G20   29.93F

$$
MOZ051-052-059>065-272100-
...EAST CENTRAL MISSOURI...

CITY           SKY/WX    TMP DP  RH WIND       PRES   REMARKS
ST LOUIS INTL  NOT AVBL

$$
MOZ072>076-082>087-097>100-106>115-272100-
...SOUTH CENTRAL AND SOUTHEAST MISSOURI...

CITY           SKY/WX    TMP DP  RH WIND       PRES   REMARKS
CAPE GIRARDEAU MOSUNNY   60  47  61 S7        30.09F
POPLAR BLUFF   MOSUNNY   60  50  69 S8        30.07F
WEST PLAINS    CLOUDY    62  44  51 S12       30.03F

$$



USA.gov is the U.S. government's official web portal to all federal, state and local government web resources and services.